Flag for France Weather past 2 weeks in Perpignan, France

Now
48 °F

Overcast.


Feels Like: 48 °F
Forecast: 53 / 68 °F
Wind: 2 mph from North

Location: Perpignan Airport

Current Time: Mar 1, 2015 at 5:51:03 AM

Latest Report: Mar 1, 2015 at 5:00 AM


Visibility: N/A

Pressure: 30.07 "Hg

Humidity: 82%

Dew point: 43 °F

Location of PerpignanLocation

Historic Weather in Perpignan — Graph

°F

Perpignan temperature yesterday

Maximum temperature yesterday: 59 °F (at 2:00 PM)
Minimum temperature yesterday: 45 °F (at 2:00 AM)
Average temperature yesterday: 50 °F

Past Weeks' High & Low Weather Summary

 TemperatureHumidityPressure
High64 °F (Feb 23, 1:30 PM)100% (Feb 15, 6:00 AM)30.57 "Hg (Feb 15, 6:00 AM)
Low32 °F (Feb 20, 4:00 AM)35% (Feb 22, 3:30 PM)29.59 "Hg (Feb 21, 3:30 PM)
Average49 °F66%30.05 "Hg
* Reported Feb 14 5:00 AM — Mar 1 5:00 AM, Perpignan, Weather by CustomWeather, © 2015

Note: Actual official high and low records may vary slightly from our data, if they occured in-between our weather recording intervals... More about our weather records

Advertising

Perpignan weather history for previous 24 hours

 ConditionsComfort  
Time TempWeatherWind HumidityBarometerVisibility
5:00 AM
Sun, Mar 1
48 °FOvercast.2 mph82%30.07 "HgN/A
4:30 AM48 °FMostly cloudy.1 mph82%30.07 "HgN/A
4:00 AM48 °FMostly cloudy.1 mph82%30.07 "HgN/A
3:30 AM46 °FOvercast.No wind87%30.09 "HgN/A
3:00 AM46 °FMostly cloudy.1 mph87%30.09 "HgN/A
2:30 AM46 °FOvercast.2 mph87%30.12 "HgN/A
2:00 AM46 °FOvercast.1 mph87%30.12 "HgN/A
1:30 AM46 °FMostly cloudy.No wind87%30.12 "HgN/A
1:00 AM46 °FMostly cloudy.1 mph87%30.12 "HgN/A
12:30 AM46 °FMostly cloudy.1 mph87%30.12 "HgN/A
12:00 AM46 °FMostly cloudy.2 mph87%30.15 "HgN/A
11:30 PM
Sat, Feb 28
46 °FOvercast.3 mph87%30.15 "HgN/A
11:00 PM48 °FOvercast.9 mph82%30.15 "HgN/A
10:30 PM50 °FLight rain. Overcast.8 mph71%30.15 "HgN/A
10:00 PM52 °FOvercast.3 mph58%30.15 "HgN/A
9:30 PM52 °FOvercast.5 mph58%30.12 "HgN/A
9:00 PM52 °FMostly cloudy.3 mph58%30.12 "HgN/A
8:30 PM54 °FOvercast.No wind51%30.12 "HgN/A
8:00 PM52 °FMostly cloudy.3 mph54%30.12 "HgN/A
7:30 PM54 °FMostly cloudy.3 mph51%30.12 "HgN/A
7:00 PM54 °FOvercast.7 mph47%30.09 "HgN/A
6:30 PM54 °FOvercast.10 mph47%30.09 "HgN/A
6:00 PM55 °FPartly sunny.2 mph41%30.09 "HgN/A
5:30 PM55 °FClear.5 mph44%30.07 "HgN/A
5:00 PM57 °FClear.8 mph41%30.07 "HgN/A
4:30 PM57 °FPartly sunny.12 mph39%30.07 "HgN/A
4:00 PM57 °FBroken clouds.12 mph39%30.07 "HgN/A
3:30 PM59 °FClear.9 mph39%30.07 "HgN/A
3:00 PM59 °FClear.9 mph36%30.07 "HgN/A
2:30 PM59 °FClear.6 mph36%30.09 "HgN/A
2:00 PM59 °FClear.13 mph36%30.09 "HgN/A
1:30 PM57 °FClear.17 mph36%30.09 "HgN/A
1:00 PM55 °FClear.16 mph38%30.09 "HgN/A
12:30 PM54 °FClear.18 mph38%30.12 "HgN/A
12:00 PM54 °FClear.18 mph38%30.15 "HgN/A
11:30 AM52 °FClear.17 mph38%30.15 "HgN/A
11:00 AM52 °FClear.15 mph38%30.15 "HgN/A
10:30 AM50 °FClear.18 mph43%30.18 "HgN/A
10:00 AM48 °FClear.20 mph46%30.18 "HgN/A
9:30 AM48 °FClear.14 mph50%30.18 "HgN/A
9:00 AM46 °FClear.9 mph53%30.18 "HgN/A
8:30 AM45 °FClear.9 mph57%30.18 "HgN/A
8:00 AM45 °FClear.13 mph53%30.18 "HgN/A
7:30 AM45 °FClear.13 mph57%30.15 "HgN/A
7:00 AM45 °FClear.15 mph57%30.15 "HgN/A
6:30 AM45 °FClear.16 mph57%30.15 "HgN/A
6:00 AM45 °FClear.16 mph57%30.15 "HgN/A
5:30 AM45 °FPassing clouds.18 mph57%30.15 "HgN/A
5:00 AM45 °FPassing clouds.12 mph57%30.15 "HgN/A
Weather by CustomWeather, © 2015

See weather overviewHow to use our weather pages